Flag for Germany Weather past 2 weeks in Frechen, North Rhine-Westphalia, Germany

Now
55 °F

Partly sunny.


Feels Like: 55 °F
Forecast: 51 / 59 °F
Wind: 5 mph from Southwest

Location: Noervenich

Current Time: Sep 4, 2015 at 10:45:28 AM

Latest Report: Sep 4, 2015 at 9:20 AM


Visibility: N/A

Pressure: 29.98 "Hg

Humidity: 77%

Dew point: 48 °F

Location of FrechenLocation

Historic Weather in Frechen — Graph

°F

Frechen temperature yesterday

Maximum temperature yesterday: 64 °F (at 2:20 PM)
Minimum temperature yesterday: 52 °F (at 5:20 AM)
Average temperature yesterday: 57 °F

Past Weeks' High & Low Weather Summary

 TemperatureHumidityPressure
High91 °F (Aug 30, 3:20 PM)100% (Aug 24, 2:49 AM)30.24 "Hg (Aug 24, 2:49 AM)
Low50 °F (Aug 29, 5:20 AM)30% (Aug 23, 3:20 PM)29.53 "Hg (Aug 24, 2:20 PM)
Average66 °F73%29.96 "Hg
* Reported Aug 20 9:20 AM — Sep 4 9:20 AM, Frechen, Weather by CustomWeather, © 2015

Note: Actual official high and low records may vary slightly from our data, if they occured in-between our weather recording intervals... More about our weather records

Advertising

Frechen weather history for previous 24 hours

 ConditionsComfort  
Time TempWeatherWind HumidityBarometerVisibility
9:20 AM
Fri, Sep 4
55 °FPartly sunny.5 mph77%29.98 "HgN/A
8:20 AM54 °FPartly sunny.6 mph77%29.98 "HgN/A
7:20 AM50 °FPassing clouds.2 mph88%29.98 "HgN/A
6:20 AM50 °FPassing clouds.3 mph88%29.95 "HgN/A
5:20 AM52 °FPassing clouds.3 mph88%29.95 "HgN/A
4:20 AM52 °FPassing clouds.2 mph88%29.98 "HgN/A
3:20 AM54 °FPassing clouds.5 mph82%29.98 "HgN/A
2:20 AM54 °FPassing clouds.3 mph82%29.98 "HgN/A
1:20 AM54 °FPartly cloudy.2 mph82%29.98 "HgN/A
12:20 AM54 °FPartly cloudy.1 mph82%29.98 "HgN/A
11:20 PM
Thu, Sep 3
54 °FPartly cloudy.2 mph82%29.98 "HgN/A
10:20 PM54 °FPassing clouds.1 mph82%29.98 "HgN/A
9:20 PM55 °FPassing clouds.2 mph82%29.98 "HgN/A
8:20 PM55 °FBroken clouds.7 mph77%29.98 "HgN/A
7:20 PM55 °FPartly sunny.6 mph77%29.95 "HgN/A
6:20 PM57 °FSprinkles. Partly sunny.13 mph72%29.95 "HgN/A
5:20 PM64 °FPassing clouds.8 mph52%29.92 "HgN/A
5:00 PM64 °FPassing clouds.10 mph52%29.92 "HgN/A
4:20 PM63 °FScattered clouds.8 mph59%29.95 "HgN/A
3:20 PM64 °FPassing clouds.10 mph56%29.95 "HgN/A
2:20 PM64 °FPassing clouds.10 mph52%29.95 "HgN/A
1:20 PM63 °FScattered clouds.6 mph64%29.95 "HgN/A
12:20 PM61 °FScattered clouds.2 mph68%29.95 "HgN/A
11:20 AM61 °FScattered clouds.5 mph72%29.95 "HgN/A
10:20 AM59 °FScattered clouds.2 mph77%29.98 "HgN/A
Weather by CustomWeather, © 2015

See weather overviewHow to use our weather pages